Flag for Germany Weather past 2 weeks in Ludwigsburg, Baden-Württemberg, Germany

Now
48 °F

Fog.


Feels Like: 48 °F
Forecast: 49 / 69 °F
Wind: 1 mph from Southeast

Location: Stuttgart-Echterdingen

Current Time: Oct 2, 2014 at 7:55:22 AM

Latest Report: Oct 2, 2014 at 7:20 AM


Visibility: 0 mi

Pressure: 30.39 "Hg

Humidity: 100%

Dew point: 48 °F

Location of LudwigsburgLocation

Historic Weather in Ludwigsburg — Graph

°F

Ludwigsburg temperature yesterday

Maximum temperature yesterday: 68 °F (at 2:20 PM)
Minimum temperature yesterday: 54 °F (at 2:20 AM)
Average temperature yesterday: 60 °F

Past Weeks' High & Low Weather Summary

 TemperatureHumidityPressure
High77 °F (Sep 29, 2:50 PM)100% (Sep 17, 6:20 AM)30.39 "Hg (Sep 17, 6:20 AM)
Low39 °F (Sep 24, 3:20 AM)36% (Sep 29, 4:20 PM)29.89 "Hg (Sep 17, 2:50 PM)
Average58 °F83%30.14 "Hg
* Reported Sep 17 6:20 AM — Oct 2 6:50 AM, Ludwigsburg, Weather by CustomWeather, © 2014

Note: Actual official high and low records may vary slightly from our data, if they occured in-between our weather recording intervals... More about our weather records

Advertising

Ludwigsburg weather history for previous 24 hours

 ConditionsComfort  
Time TempWeatherWind HumidityBarometerVisibility
6:50 AM
Oct 2
48 °FSleet. Overcast.2 mph100%30.39 "Hg1 mi
6:20 AM48 °FPassing clouds.1 mph100%30.39 "Hg1 mi
5:50 AM48 °FPassing clouds.1 mph100%30.39 "Hg1 mi
5:20 AM48 °FDense fog.2 mph100%30.39 "Hg0 mi
4:50 AM50 °FSleet. Overcast.1 mph100%30.39 "Hg3 mi
4:20 AM50 °FSleet. Overcast.1 mph100%30.36 "Hg1 mi
3:50 AM50 °FFog.2 mph94%30.36 "Hg6 mi
3:20 AM52 °FFog.1 mph94%30.36 "Hg6 mi
2:50 AM52 °FClear.2 mph94%30.36 "Hg10 mi
2:20 AM52 °FClear.2 mph94%30.36 "Hg10 mi
1:50 AM52 °FClear.2 mph94%30.36 "Hg10 mi
1:20 AM54 °FClear.3 mph94%30.36 "Hg10 mi
12:50 AM54 °FClear.2 mph94%30.36 "Hg10 mi
12:20 AM54 °FClear.3 mph94%30.36 "Hg10 mi
11:50 PM
Oct 1
55 °FClear.2 mph88%30.36 "Hg10 mi
11:20 PM55 °FClear.2 mph88%30.36 "Hg10 mi
10:50 PM57 °FClear.3 mph88%30.36 "Hg10 mi
10:20 PM57 °FClear.2 mph88%30.36 "Hg10 mi
9:50 PM59 °FClear.1 mph88%30.36 "Hg10 mi
9:20 PM59 °FClear.1 mph88%30.36 "Hg10 mi
8:50 PM59 °FClear.1 mph94%30.36 "Hg10 mi
8:20 PM61 °FClear.3 mph83%30.36 "Hg10 mi
7:50 PM63 °FPassing clouds.6 mph83%30.33 "HgN/A
7:20 PM64 °FScattered clouds.7 mph78%30.33 "HgN/A
6:50 PM66 °FPassing clouds.5 mph68%30.33 "HgN/A
6:20 PM66 °FPassing clouds.6 mph68%30.33 "HgN/A
5:50 PM68 °FPassing clouds.6 mph64%30.33 "HgN/A
5:20 PM66 °FPassing clouds.6 mph68%30.30 "HgN/A
4:50 PM68 °FPassing clouds.3 mph64%30.30 "HgN/A
4:20 PM68 °FPassing clouds.6 mph64%30.30 "HgN/A
3:50 PM68 °FPassing clouds.2 mph64%30.33 "HgN/A
3:20 PM68 °FPassing clouds.2 mph64%30.33 "HgN/A
2:50 PM66 °FPassing clouds.5 mph73%30.33 "HgN/A
2:20 PM68 °FPassing clouds.3 mph73%30.33 "HgN/A
1:50 PM66 °FPassing clouds.3 mph78%30.33 "HgN/A
1:20 PM64 °FScattered clouds.5 mph83%30.36 "HgN/A
12:50 PM64 °FScattered clouds.5 mph88%30.36 "Hg5 mi
12:20 PM63 °FScattered clouds.3 mph88%30.36 "Hg4 mi
11:50 AM63 °FScattered clouds.2 mph88%30.36 "Hg4 mi
11:20 AM59 °FFog.2 mph100%30.36 "Hg2 mi
10:50 AM59 °FSleet. Cloudy.2 mph100%30.36 "Hg1 mi
10:20 AM57 °FSleet. Cloudy.2 mph100%30.33 "Hg1 mi
9:50 AM57 °FCool.2 mph100%30.33 "Hg1 mi
9:20 AM57 °FFog.2 mph100%30.33 "Hg1 mi
8:50 AM57 °FPartly sunny.2 mph100%30.33 "Hg1 mi
8:20 AM55 °FFog.2 mph100%30.33 "Hg1 mi
7:50 AM55 °FFog.2 mph100%30.33 "Hg1 mi
7:20 AM55 °FFog.2 mph100%30.30 "Hg1 mi
Weather by CustomWeather, © 2014

See weather overviewHow to use our weather pages